This is the latest recevied weather packets stored in our database for station/object N8QF. If no packets are shown the sender has not sent any weather packets the latest 1 day(s).
| Time | Temp. | Humidity | Pressure | Rain* | Wind** | Luminosity | Snow |
|---|---|---|---|---|---|---|---|
| 1778087944 | 14.44° C | 51% | 1012.5 hPa | 11.94 mm | - | - | - |
| 1778087343 | 14.44° C | 58% | 1012.4 hPa | 11.94 mm | - | - | - |
| 1778087043 | 13.89° C | 54% | 1012.5 hPa | 11.94 mm | - | - | - |
| 1778085542 | 13.89° C | 61% | 1012.6 hPa | 11.94 mm | - | - | - |
| 1778084039 | 13.33° C | 59% | 1012.3 hPa | 11.94 mm | - | - | - |
| 1778082838 | 12.78° C | 65% | 1012.3 hPa | 11.94 mm | - | - | - |
| 1778082237 | 12.78° C | 63% | 1012.6 hPa | 11.94 mm | - | - | - |
| 1778081334 | 12.22° C | 66% | 1012.6 hPa | 11.94 mm | - | - | - |
| 1778081034 | 12.22° C | 64% | 1012.5 hPa | 11.94 mm | - | - | - |
| 1778080517 | 12.22° C | 66% | 1012.1 hPa | 11.94 mm | - | - | - |
| 1778080133 | 12.22° C | 65% | 1012 hPa | 11.94 mm | - | - | - |
| 1778079833 | 11.67° C | 66% | 1011.9 hPa | 11.94 mm | - | - | - |
| 1778078330 | 11.67° C | 71% | 1011.4 hPa | 11.68 mm | - | - | - |
| 1778078030 | 11.11° C | 69% | 1011.3 hPa | 11.68 mm | - | - | - |
| 1778076829 | 10° C | 76% | 1011.3 hPa | 11.68 mm | - | - | - |
| 1778076226 | 10° C | 76% | 1011.3 hPa | 11.68 mm | - | - | - |
| 1778075926 | 10° C | 76% | 1011.2 hPa | 11.68 mm | - | - | - |
| 1778074725 | 9.44° C | 83% | 1011.4 hPa | 11.68 mm | - | - | - |
| 1778073824 | 8.89° C | 85% | 1011 hPa | 11.68 mm | - | - | - |
| 1778073222 | 8.89° C | 83% | 1011.1 hPa | 11.68 mm | - | - | - |
| 1778071721 | 8.33° C | 86% | 1010.7 hPa | 11.68 mm | - | - | - |
| 1778071422 | 8.33° C | 86% | 1010.6 hPa | 11.68 mm | - | - | - |
| 1778070820 | 8.33° C | 86% | 1010.5 hPa | 11.68 mm | - | - | - |
| 1778070520 | 7.78° C | 87% | 1010.5 hPa | 11.68 mm | - | - | - |
| 1778069319 | 7.78° C | 88% | 1010.4 hPa | 11.68 mm | - | - | - |
* Rain since midnight (hover to see other rain measurements)
** Current wind speed in m/s (hover to see current wind gust speed)